Rbgn^[z[y[W
メイン
   新天体発見情報
     Comet C/2020 M3 (ATLAS)
投稿するにはまず登録を

スレッド表示 | 新しいものから 前のトピック | 次のトピック | 下へ
投稿者 スレッド
佐藤裕久
投稿日時: 2020-7-23 14:26
モデレータ
登録日: 2005-6-12
居住地: 日本
投稿: 2099
オンライン
Comet C/2020 M3 (ATLAS)

6月27.6日UT、ハワイ Mauna Loaにある小惑星地球衝突最終警報システム Asteroid Terrestrial-
impact Last Alert System (ATLAS)調査プログラムのコースに0.5-m f/2 Schmidt反射望遠鏡で
得たCCD画像から小惑星状天体が発見された。
佐藤英貴氏(東京都文京区, 6月28.70日UT,60秒露出8枚のスタック, 0.51-m f/6.8 アストログラフ, 
Siding Spring. NSW, オーストラリア, 遠隔操作:強く集光した8" のコマが見え、p.a. 245°に
向かって12"伸びたスパイクのような尾がある。4".9の円形範囲で測定した光度は18.6等。6月
29.71日, 60秒露出6枚のスタック, 同じ望遠鏡;強く集光した8" のコマが見え、西に向かって12"
の尾の気配がある。4".9の円形範囲で測定した光度は18.8等であった)や吉本勝己氏(山口県熊毛郡,
6月30.77日UT,60秒露出8枚のスタック, 0.50-m f/6.8 反射望遠鏡, Siding Spring, 遠隔操作:
18.8等で11" のコマが見え、p.a.235°に8"の広がった尾がある。中野主一氏, 洲本市, 兵庫県に
よる報告)ら、CCD位置観測者により彗星状と観測された。

彗星機能の報告は次の通り:

OC   Date        Reporter           Coma    Tail    PA          Exposures
Q62  2020-06-28  H. Sato             8"      12"    245           8x60s
Q62  2020-06-29  H. Sato             8"      12"                  6x60s
Q62  2020-06-30  K. Yoshimoto       11"       8"    235           8x60s
Q62  2020-07-01  A. Valvasori       10"                          24x60s

発見位置は次のとおり、

     2020 UT             R.A. (2000) Decl.       Mag
     June 27.58137    0 08 11.58   -31 31 11.9   18.8
          27.58691    0 08 12.24   -31 31 12.8   18.9
          27.60453    0 08 14.47   -31 31 17.7   18.8
          27.61237    0 08 15.57   -31 31 19.7   18.8

MPCの放物線軌道要素、位置推算表は次のとおり、

Orbital elements:
    C/2020 M3 (ATLAS)                                                           
T 2020 Oct. 24.12156 TT                                 Rudenko                 
q   1.3130224            (2000.0)            P               Q                  
                   Peri.  324.63091     +0.74601824     -0.54258077             
                   Node    72.88653     +0.66508329     +0.57791977             
e   1.0            Incl.   23.82679     +0.03348146     +0.60960221             
From 16 observations 2020 June 27-July 1.                                       
                                                                                
Ephemeris:
Date    TT    R. A. (2000) Decl.     Delta      r    Elong.  Phase   m1
2020 06 03    23 16 58.9 -30 29 53   2.0896  2.3951    94.6    25.0  19.9
...
2020 06 18    23 47 31.7 -31 00 15   1.7988  2.2373   101.6    26.4  19.3
...
2020 06 26    00 04 42.5 -31 25 25   1.6541  2.1541   105.0    27.1  18.9
...
2020 07 02    00 18 03.4 -31 48 24   1.5510  2.0922   107.3    27.6  18.7
2020 07 03    00 20 19.4 -31 52 33   1.5343  2.0819   107.7    27.7  18.6
2020 07 04    00 22 36.2 -31 56 48   1.5177  2.0717   108.0    27.8  18.6
...
2020 07 10    00 36 32.5 -32 24 09   1.4212  2.0107   110.0    28.4  18.3
...
2020 07 18    00 55 51.2 -33 05 02   1.3005  1.9306   112.3    29.1  17.9
...
2020 08 02    01 34 17.8 -34 29 03   1.0999  1.7858   115.2    31.0  17.2

(MPEC 2020-N11、CBET 4808)

スレッド表示 | 新しいものから 前のトピック | 次のトピック | トップ

投稿するにはまず登録を
 
© 1999 Tsutomu Seki.